Weather History for Nashua, NH

Change the Weather History Date:

Saturday, May 11, 2013

  Actual Average Record
Temperature  
Mean Temperature 64 °F -  
Max Temperature 69 °F 67 °F 90 °F (1993)
Min Temperature 59 °F 40 °F 23 °F (1966)
Degree Days  
Heating Degree Days 1    
Growing Degree Days 14 (Base 50)    
Moisture  
Dew Point 59 °F    
Average Humidity 84    
Maximum Humidity 94    
Minimum Humidity 68    
Precipitation  
Precipitation 0.12 in - - ()
Sea Level Pressure  
Sea Level Pressure 30.24 in    
Wind  
Wind Speed 2 mph (SSE)    
Max Wind Speed 7 mph    
Max Gust Speed 14 mph    
Visibility 9 miles    
Events Rain    
Averages and records for this station are not official NWS values.
T = Trace of Precipitation, MM = Missing Value Source: NWS Daily Summary

Daily Weather History Graph

Daily Weather History Graph

Search for Another Location

Airport:

Trip Planner

Search our weather history database for the weather conditions in past years. The results will help you decide how hot, cold, wet, or windy it might be!

Date:

Astronomy

May. 11, 2013 Rise Set
Actual Time 5:27 AM EDT 7:57 PM EDT
Civil Twilight 4:55 AM EDT 8:30 PM EDT
Nautical Twilight 4:15 AM EDT 9:10 PM EDT
Astronomical Twilight 3:30 AM EDT 9:55 PM EDT
Moon 6:32 AM EDT (5/11) 9:36 PM EDT (5/11)
Length of Visible Light 15h 34m
Length of Day
14h 30m
Waxing Crescent, 3% of the Moon is Illuminated
May 11
Waxing Crescent
May 18
First Quarter
May 25
Full
May 31
Last Quarter
Jun 8
New

Hourly Weather History & Observations

Time (EDT) Temp. Dew Point Humidity Pressure Visibility Wind Dir Wind Speed Gust Speed Precip Events Conditions
12:51 AM 64.9 °F 54.9 °F 70% 30.61 in 10.0 mi Calm Calm - N/A   Clear
1:51 AM 64.9 °F 54.0 °F 68% 30.59 in 10.0 mi Calm Calm - N/A   Partly Cloudy
2:51 AM 63.9 °F 54.0 °F 70% 30.57 in 10.0 mi Calm Calm - N/A   Clear
3:51 AM 63.0 °F 54.0 °F 72% 30.55 in 10.0 mi SE 4.6 mph - N/A   Clear
4:51 AM 61.9 °F 54.0 °F 75% 30.53 in 10.0 mi Calm Calm - N/A   Clear
5:51 AM 59.9 °F 54.9 °F 83% 30.53 in 6.0 mi Calm Calm - 0.01 in Rain Light Rain
6:51 AM 59.0 °F 55.9 °F 90% 30.54 in 9.0 mi SSE 4.6 mph - 0.02 in Rain Light Rain
7:28 AM 59.0 °F 57.2 °F 94% 29.81 in 5.0 mi Calm Calm - 0.00 in Rain Light Rain
7:51 AM 59.9 °F 57.9 °F 93% 30.52 in 5.0 mi Variable 4.6 mph - 0.02 in Rain Light Rain
8:10 AM 60.8 °F 57.2 °F 88% 29.80 in 7.0 mi SSE 4.6 mph - 0.00 in   Mostly Cloudy
8:51 AM 61.9 °F 59.0 °F 90% 30.51 in 10.0 mi Calm Calm - 0.00 in   Overcast
9:25 AM 64.4 °F 59.0 °F 83% 29.78 in 10.0 mi Variable 4.6 mph - N/A   Overcast
9:51 AM 65.8 °F 59.9 °F 81% 30.50 in 10.0 mi Variable 4.6 mph - N/A   Overcast
10:51 AM 66.9 °F 59.0 °F 76% 30.49 in 10.0 mi Variable 6.9 mph - N/A   Overcast
11:51 AM 66.9 °F 59.0 °F 76% 30.50 in 10.0 mi Variable 3.5 mph - N/A   Overcast
12:51 PM 66.9 °F 59.9 °F 78% 30.47 in 9.0 mi Variable 4.6 mph - 0.00 in Rain Light Rain
1:11 PM 69.8 °F 60.8 °F 73% 29.75 in 10.0 mi Variable 3.5 mph - 0.00 in   Mostly Cloudy
1:51 PM 68.9 °F 59.9 °F 73% 30.46 in 10.0 mi Variable 5.8 mph - 0.00 in   Overcast
2:51 PM 66.9 °F 61.0 °F 81% 30.45 in 6.0 mi Calm Calm - 0.03 in Rain Rain
2:53 PM 66.2 °F 60.8 °F 83% 29.73 in 1.5 mi Variable 5.8 mph - 0.00 in Rain Light Rain
3:02 PM 66.2 °F 62.6 °F 88% 29.73 in 7.0 mi Variable 4.6 mph - 0.01 in Rain Light Rain
3:51 PM 68.0 °F 59.9 °F 75% 30.44 in 10.0 mi SW 6.9 mph 13.8 mph 0.01 in   Overcast
4:51 PM 66.9 °F 59.0 °F 76% 30.44 in 10.0 mi Variable 5.8 mph - 0.00 in Rain Light Rain
5:51 PM 65.8 °F 59.9 °F 81% 30.44 in 10.0 mi Calm Calm - 0.00 in Rain Light Rain
6:41 PM 64.4 °F 60.8 °F 88% 29.73 in 4.0 mi Variable 4.6 mph - 0.03 in Rain Light Rain
6:51 PM 63.9 °F 61.0 °F 90% 30.46 in 5.0 mi Calm Calm - 0.03 in Rain Light Rain
7:51 PM 63.9 °F 61.0 °F 90% 30.45 in 10.0 mi Variable 3.5 mph - 0.00 in   Overcast
7:58 PM 64.4 °F 60.8 °F 88% 29.73 in 10.0 mi Calm Calm - N/A   Scattered Clouds
8:28 PM 62.6 °F 60.8 °F 94% 29.72 in 10.0 mi Calm Calm - N/A   Overcast
8:51 PM 63.0 °F 61.0 °F 93% 30.44 in 10.0 mi Calm Calm - 0.00 in Rain Light Rain
9:51 PM 63.0 °F 61.0 °F 93% 30.43 in 10.0 mi Calm Calm - 0.00 in   Overcast
10:18 PM 62.6 °F 60.8 °F 94% 29.71 in 10.0 mi Calm Calm - N/A   Mostly Cloudy
10:51 PM 61.9 °F 59.9 °F 93% 30.42 in 10.0 mi Calm Calm - 0.00 in   Mostly Cloudy
11:24 PM 62.6 °F 60.8 °F 94% 29.71 in 10.0 mi Calm Calm - N/A   Mostly Cloudy
11:36 PM 62.6 °F 60.8 °F 94% 29.71 in 9.0 mi Calm Calm - N/A   Mostly Cloudy
11:51 PM 61.9 °F 59.9 °F 93% 30.42 in 9.0 mi Calm Calm - N/A   Mostly Cloudy